Previsão horária em Ali Sabieh

Hoje, 15 Junho, Terça-feira

Tempo Temperatura Precipitação Vento Pressão Humidade
00:00 +32°C° 0 mm 2 m/s 694 mmHg 31%
01:00 +31°C° 0 mm 2 m/s 694 mmHg 33%
02:00 +31°C° 0 mm 1 m/s 694 mmHg 34%
03:00 +30°C° 0 mm 1 m/s 694 mmHg 36%
04:00 +30°C° 0 mm 1 m/s 694 mmHg 35%
05:00 +30°C° 0 mm 2 m/s 694 mmHg 34%
06:00 +30°C° 0 mm 3 m/s 695 mmHg 33%
07:00 +31°C° 0 mm 3 m/s 695 mmHg 30%
08:00 +34°C° 0 mm 4 m/s 696 mmHg 26%
09:00 +36°C° 0 mm 5 m/s 696 mmHg 23%
10:00 +37°C° 0 mm 4 m/s 696 mmHg 21%
11:00 +40°C° 0 mm 4 m/s 696 mmHg 18%
12:00 +41°C° 0 mm 4 m/s 696 mmHg 16%
13:00 +40°C° 0 mm 3 m/s 695 mmHg 15%
14:00 +42°C° 0 mm 3 m/s 694 mmHg 14%
15:00 +42°C° 0 mm 3 m/s 694 mmHg 13%
16:00 +41°C° 0 mm 4 m/s 694 mmHg 15%
17:00 +40°C° 0 mm 4 m/s 694 mmHg 17%
18:00 +39°C° 0 mm 5 m/s 694 mmHg 20%
19:00 +37°C° 0 mm 4 m/s 694 mmHg 23%
20:00 +36°C° 0 mm 3 m/s 694 mmHg 26%
21:00 +34°C° 0 mm 2 m/s 695 mmHg 29%
22:00 +34°C° 0 mm 2 m/s 695 mmHg 29%
23:00 +32°C° 0 mm 2 m/s 694 mmHg 29%

Amanhã, 16 Junho, Quarta-feira

Tempo Temperatura Precipitação Vento Pressão Humidade
00:00 +32°C° 0 mm 2 m/s 694 mmHg 29%
01:00 +31°C° 0 mm 2 m/s 694 mmHg 29%
02:00 +31°C° 0 mm 2 m/s 694 mmHg 30%
03:00 +30°C° 0 mm 2 m/s 694 mmHg 31%
04:00 +30°C° 0 mm 1 m/s 694 mmHg 30%
05:00 +30°C° 0 mm 1 m/s 694 mmHg 30%
06:00 +30°C° 0 mm 1 m/s 695 mmHg 29%
07:00 +32°C° 0 mm 2 m/s 695 mmHg 27%
08:00 +34°C° 0 mm 2 m/s 696 mmHg 25%
09:00 +36°C° 0 mm 3 m/s 697 mmHg 23%
10:00 +37°C° 0 mm 3 m/s 696 mmHg 21%
11:00 +39°C° 0 mm 3 m/s 696 mmHg 19%
12:00 +41°C° 0 mm 4 m/s 696 mmHg 17%
13:00 +42°C° 0 mm 4 m/s 696 mmHg 15%
14:00 +42°C° 0 mm 4 m/s 695 mmHg 14%
15:00 +43°C° 0 mm 4 m/s 695 mmHg 12%
16:00 +42°C° 0 mm 4 m/s 694 mmHg 14%
17:00 +41°C° 0 mm 4 m/s 694 mmHg 17%
18:00 +40°C° 0 mm 5 m/s 694 mmHg 19%
19:00 +37°C° 0 mm 4 m/s 695 mmHg 24%
20:00 +35°C° 0 mm 4 m/s 695 mmHg 30%
21:00 +34°C° 0 mm 3 m/s 695 mmHg 35%
22:00 +33°C° 0 mm 3 m/s 695 mmHg 34%
23:00 +32°C° 0 mm 2 m/s 695 mmHg 33%

Depois de amanhã, 17 Junho, Quinta-feira

Tempo Temperatura Precipitação Vento Pressão Humidade
00:00 +32°C° 0 mm 1 m/s 695 mmHg 31%
01:00 +32°C° 0 mm 1 m/s 695 mmHg 31%
02:00 +31°C° 0 mm 1 m/s 695 mmHg 30%
03:00 +31°C° 0 mm 1 m/s 695 mmHg 30%
04:00 +31°C° 0 mm 1 m/s 695 mmHg 30%
05:00 +31°C° 0 mm 1 m/s 695 mmHg 30%
06:00 +31°C° 0 mm 1 m/s 695 mmHg 30%
07:00 +32°C° 0 mm 2 m/s 696 mmHg 28%
08:00 +35°C° 0 mm 3 m/s 696 mmHg 26%
09:00 +36°C° 0 mm 5 m/s 697 mmHg 24%
10:00 +39°C° 0 mm 5 m/s 697 mmHg 22%
11:00 +40°C° 0 mm 5 m/s 696 mmHg 19%
12:00 +41°C° 0 mm 4 m/s 696 mmHg 16%
13:00 +42°C° 0 mm 4 m/s 696 mmHg 15%
14:00 +42°C° 0 mm 4 m/s 695 mmHg 13%
15:00 +43°C° 0 mm 3 m/s 695 mmHg 12%
16:00 +43°C° 0 mm 3 m/s 695 mmHg 12%
17:00 +42°C° 0 mm 3 m/s 695 mmHg 13%
18:00 +42°C° 0 mm 3 m/s 695 mmHg 13%
19:00 +39°C° 0 mm 2 m/s 695 mmHg 20%
20:00 +37°C° 0 mm 2 m/s 695 mmHg 27%
21:00 +35°C° 0 mm 2 m/s 695 mmHg 33%
22:00 +34°C° 0 mm 2 m/s 695 mmHg 35%
23:00 +34°C° 0 mm 2 m/s 695 mmHg 36%

18 Junho, Sexta-feira

Tempo Temperatura Precipitação Vento Pressão Humidade
00:00 +32°C° 0 mm 2 m/s 695 mmHg 37%
01:00 +32°C° 0 mm 1 m/s 695 mmHg 37%
02:00 +32°C° 0 mm 1 m/s 694 mmHg 36%
03:00 +31°C° 0 mm 1 m/s 694 mmHg 35%
04:00 +31°C° 0 mm 1 m/s 694 mmHg 35%
05:00 +31°C° 0 mm 2 m/s 695 mmHg 34%
06:00 +31°C° 0 mm 2 m/s 695 mmHg 34%
07:00 +33°C° 0 mm 3 m/s 696 mmHg 31%
08:00 +35°C° 0 mm 4 m/s 696 mmHg 28%
09:00 +36°C° 0 mm 4 m/s 697 mmHg 25%
10:00 +38°C° 0 mm 4 m/s 696 mmHg 22%
11:00 +40°C° 0 mm 4 m/s 696 mmHg 19%
12:00 +42°C° 0 mm 4 m/s 696 mmHg 16%
13:00 +42°C° 0 mm 4 m/s 695 mmHg 15%
14:00 +43°C° 0 mm 4 m/s 695 mmHg 14%
15:00 +44°C° 0 mm 4 m/s 694 mmHg 13%
16:00 +42°C° 0 mm 4 m/s 694 mmHg 17%
17:00 +40°C° 0 mm 3 m/s 694 mmHg 20%
18:00 +39°C° 0 mm 3 m/s 694 mmHg 23%
19:00 +38°C° 0 mm 3 m/s 695 mmHg 29%
20:00 +36°C° 0 mm 3 m/s 695 mmHg 35%
21:00 +34°C° 0 mm 3 m/s 695 mmHg 40%
22:00 +34°C° 0 mm 3 m/s 695 mmHg 40%
23:00 +33°C° 0 mm 3 m/s 695 mmHg 40%

19 Junho, Sábado

Tempo Temperatura Precipitação Vento Pressão Humidade
00:00 +32°C° 0 mm 2 m/s 695 mmHg 40%
01:00 +32°C° 0 mm 2 m/s 695 mmHg 39%
02:00 +32°C° 0 mm 2 m/s 695 mmHg 38%
03:00 +32°C° 0 mm 2 m/s 694 mmHg 37%
04:00 +31°C° 0 mm 3 m/s 695 mmHg 37%
05:00 +32°C° 0 mm 5 m/s 695 mmHg 36%
06:00 +32°C° 0 mm 6 m/s 695 mmHg 35%
07:00 +33°C° 0 mm 7 m/s 696 mmHg 32%
08:00 +35°C° 0 mm 7 m/s 696 mmHg 28%
09:00 +37°C° 0 mm 8 m/s 697 mmHg 24%
10:00 +39°C° 0 mm 7 m/s 697 mmHg 21%
11:00 +41°C° 0 mm 7 m/s 697 mmHg 18%
12:00 +42°C° 0 mm 6 m/s 696 mmHg 14%
13:00 +43°C° 0 mm 5 m/s 696 mmHg 14%
14:00 +43°C° 0 mm 4 m/s 695 mmHg 13%
15:00 +43°C° 0 mm 3 m/s 695 mmHg 12%
16:00 +43°C° 0 mm 3 m/s 694 mmHg 13%
17:00 +41°C° 0 mm 2 m/s 694 mmHg 14%
18:00 +40°C° 0 mm 2 m/s 694 mmHg 16%
19:00 +38°C° 0 mm 2 m/s 694 mmHg 23%
20:00 +36°C° 0 mm 3 m/s 695 mmHg 31%
21:00 +33°C° 0 mm 4 m/s 695 mmHg 38%
22:00 +33°C° 0 mm 3 m/s 695 mmHg 36%
23:00 +32°C° 0 mm 2 m/s 695 mmHg 34%

20 Junho, Domingo

Tempo Temperatura Precipitação Vento Pressão Humidade
00:00 +32°C° 0 mm 2 m/s 695 mmHg 31%
01:00 +32°C° 0 mm 2 m/s 695 mmHg 33%
02:00 +33°C° 0 mm 3 m/s 695 mmHg 35%
03:00 +32°C° 0 mm 4 m/s 694 mmHg 37%
04:00 +32°C° 0 mm 5 m/s 695 mmHg 38%
05:00 +30°C° 0 mm 5 m/s 695 mmHg 38%
06:00 +29°C° 0 mm 6 m/s 695 mmHg 39%
07:00 +33°C° 0 mm 7 m/s 696 mmHg 34%
08:00 +35°C° 0 mm 7 m/s 696 mmHg 28%
09:00 +38°C° 0 mm 8 m/s 697 mmHg 22%
10:00 +39°C° 0 mm 7 m/s 697 mmHg 20%
11:00 +40°C° 0 mm 7 m/s 696 mmHg 18%
12:00 +42°C° 0 mm 6 m/s 696 mmHg 15%
13:00 +42°C° 0 mm 6 m/s 696 mmHg 14%
14:00 +44°C° 0 mm 6 m/s 695 mmHg 13%
15:00 +45°C° 0 mm 6 m/s 694 mmHg 12%
16:00 +44°C° 0 mm 6 m/s 694 mmHg 13%
17:00 +42°C° 0 mm 5 m/s 694 mmHg 15%
18:00 +41°C° 0 mm 5 m/s 694 mmHg 16%
19:00 +39°C° 0 mm 5 m/s 694 mmHg 22%
20:00 +36°C° 0 mm 4 m/s 694 mmHg 27%
21:00 +34°C° 0 mm 4 m/s 695 mmHg 32%
22:00 +34°C° 0 mm 3 m/s 695 mmHg 34%
23:00 +33°C° 0 mm 3 m/s 695 mmHg 35%
Mostrar mais